Tacoma Narrows, WA
on Saturday, November 24, 2012

Saturday
Previous Day Next Day
Daily Summary
 ActualAverageRecord
Temperature
Mean Temperature °F °F  
Max Temperature 46°F 47°F 55°F (2004)
Min Temperature 39°F 39°F 17°F (2010)
Degree Days
Heating Degree Days 22    
Moisture
Dew Point 40°F   
Average Humidity 89    
Maximum Humidity 93    
Minimum Humidity 81    
Precipitation
Precipitation 0.01 in in in ()
Wind
Wind Speed 2 mph   
Max Wind Speed 7 mph   
Max Gust Speed mph   
Visibility 8 miles   
Events Rain   
Averages and records for this station are not official NWS values.
Key: T is trace of precipitation, MM is missing value
Source: NWS Daily Summary
Seasonal Weather Averages
Time(PST)TemperatureDew PointHumidity Pressure Visibility Wind DirectionWind SpeedGust SpeedPrecipitationEvents Conditions
12:53 AM 46.9°F 42.1°F 83% 30.16 in 10.0 miles SSW 3.5 mph - N/A   Clear
1:53 AM 46.9°F 42.1°F 83% 30.18 in 10.0 miles SSW 3.5 mph - N/A   Overcast
2:53 AM 46.9°F 43.0°F 86% 30.19 in 10.0 miles South 4.6 mph - 0.00 in Rain Light Rain
3:53 AM 46.0°F 41.0°F 83% 30.20 in 10.0 miles Calm Calm - 0.00 in   Mostly Cloudy
4:53 AM 44.1°F 39.9°F 85% 30.21 in 10.0 miles South 3.5 mph - N/A   Clear
5:35 AM 44.6°F 42.8°F 93% 30.21 in 10.0 miles Calm Calm - 0.01 in   Mostly Cloudy
5:53 AM 45.0°F 42.1°F 90% 30.22 in 10.0 miles Calm Calm - 0.01 in   Overcast
6:33 AM 42.8°F 41.0°F 93% 30.22 in 10.0 miles South 6.9 mph - N/A   Scattered Clouds
6:53 AM 44.1°F 41.0°F 89% 30.23 in 10.0 miles SW 5.8 mph - N/A   Partly Cloudy
7:01 AM 42.8°F 41.0°F 93% 30.22 in 2.0 miles West 3.5 mph - N/A   Scattered Clouds
7:05 AM 42.8°F 41.0°F 93% 30.22 in 1.0 miles West 3.5 mph - N/A   Mostly Cloudy
7:08 AM 42.8°F 41.0°F 93% 30.22 in 0.8 miles WNW 3.5 mph - N/A   Mostly Cloudy
7:16 AM 42.8°F 39.2°F 87% 30.22 in 1.5 miles Calm Calm - N/A   Mostly Cloudy
7:22 AM 42.8°F 41.0°F 93% 30.22 in 3.0 miles West 3.5 mph - N/A   Overcast
7:53 AM 43.0°F 41.0°F 93% 30.24 in 9.0 miles NW 3.5 mph - N/A   Overcast
8:30 AM 42.8°F 41.0°F 93% 30.24 in 10.0 miles Calm Calm - N/A   Overcast
8:53 AM 43.0°F 41.0°F 93% 30.25 in 10.0 miles Calm Calm - N/A   Overcast
9:53 AM 44.1°F 41.0°F 89% 30.26 in 4.0 miles Calm Calm - N/A   Overcast
10:53 AM 45.0°F 41.0°F 86% 30.26 in 10.0 miles Calm Calm - N/A   Overcast
11:53 AM 45.0°F 41.0°F 86% 30.26 in 10.0 miles West 3.5 mph - N/A   Overcast
12:34 PM 44.6°F 41.0°F 87% 30.24 in 10.0 miles Calm Calm - N/A   Overcast
12:40 PM 44.6°F 41.0°F 87% 30.24 in 10.0 miles Calm Calm - N/A   Overcast
12:53 PM 45.0°F 41.0°F 86% 30.25 in 10.0 miles West 3.5 mph - N/A   Overcast
1:53 PM 44.1°F 39.9°F 85% 30.25 in 10.0 miles Calm Calm - N/A   Overcast
2:53 PM 44.1°F 39.9°F 85% 30.25 in 10.0 miles Calm Calm - N/A   Overcast
3:53 PM 45.0°F 39.9°F 82% 30.24 in 10.0 miles Calm Calm - N/A   Overcast
3:57 PM 44.6°F 39.2°F 81% 30.23 in 10.0 miles Calm Calm - N/A   Overcast
4:53 PM 44.1°F 41.0°F 89% 30.24 in 10.0 miles Calm Calm - N/A   Overcast
5:53 PM 44.1°F 41.0°F 89% 30.24 in 10.0 miles NNW 3.5 mph - N/A   Overcast
6:53 PM 42.1°F 39.0°F 89% 30.24 in 10.0 miles Calm Calm - N/A   Overcast
7:00 PM 41.0°F 37.4°F 87% 30.23 in 10.0 miles Calm Calm - N/A   Overcast
7:53 PM 41.0°F 37.9°F 89% 30.24 in 3.0 miles Calm Calm - N/A   Mostly Cloudy
8:39 PM 41.0°F 39.2°F 93% 30.24 in 10.0 miles Calm Calm - N/A   Overcast
8:53 PM 41.0°F 39.0°F 93% 30.25 in 10.0 miles Calm Calm - N/A   Overcast
9:38 PM 42.8°F 39.2°F 87% 30.25 in 9.0 miles Calm Calm - N/A   Mostly Cloudy
9:53 PM 41.0°F 39.0°F 93% 30.26 in 9.0 miles Calm Calm - N/A   Mostly Cloudy
10:44 PM 39.2°F 37.4°F 93% 30.25 in 2.5 miles Calm Calm - N/A   Mostly Cloudy
10:53 PM 41.0°F 37.9°F 89% 30.27 in 2.0 miles Calm Calm - N/A   Mostly Cloudy
10:57 PM 39.2°F 37.4°F 93% 30.25 in 0.8 miles Calm Calm - N/A   Mostly Cloudy
11:34 PM 41.0°F 39.2°F 93% 30.27 in 1.2 miles Calm Calm - N/A   Overcast
11:38 PM 41.0°F 39.2°F 93% 30.27 in 3.0 miles Calm Calm - N/A   Overcast
11:53 PM 41.0°F 39.0°F 93% 30.28 in 7.0 miles Calm Calm - N/A   Overcast
Moon Phase
Nov. 24 Nov. 28 Dec. 06 Dec. 13 Dec. 20
Sunrise:07:28 AM (PST) Moon Rise:02:23 PM (PST)
Sunset:04:25 PM (PST) Moon Set:03:38 AM (PST)

Copyright © 2014 The Weather Underground, Inc.